Location: Narvik
(68.4360°N, 17.4370°E)
Time: 22:16:39
(UTC+02:00)

N. Korean satellite - Visible Passes

Search period start: 17 October 2019 00:00
Search period end: 27 October 2019 00:00
Orbit: 455 x 508 km, 97.2° (Epoch: 16 October)

Date Brightness Start Highest point End Pass type
(mag) Time Alt. Az. Time Alt. Az. Time Alt. Az.
17 Oct 8.9 06:25:23 10° NNE 06:28:32 30° E 06:31:45 10° SSE visible
17 Oct 9.7 18:48:51 10° SW 18:51:28 20° W 18:54:08 10° NW visible
18 Oct 9.6 06:00:14 10° NE 06:03:02 21° E 06:05:50 10° SE visible
18 Oct 9.0 18:22:53 10° SSW 18:25:55 28° W 18:29:02 10° NNW visible
19 Oct 10.1 05:35:17 10° NE 05:37:26 15° E 05:39:37 10° ESE visible
19 Oct 7.4 07:08:03 10° NNE 07:11:35 57° ESE 07:15:09 10° S visible
19 Oct 8.1 17:57:08 10° S 18:00:27 41° W 18:03:49 10° NNW visible
19 Oct 10.4 19:33:45 10° W 19:34:49 11° WNW 19:35:53 10° WNW visible
20 Oct 10.5 05:10:54 10° ENE 05:11:48 11° ENE 05:12:39 10° E visible
20 Oct 8.3 06:42:47 10° NNE 06:46:10 39° E 06:49:35 10° S visible
20 Oct 10.0 19:06:57 10° WSW 19:09:10 16° W 19:11:23 10° NW visible
21 Oct 9.1 06:17:34 10° NNE 06:20:41 27° E 06:23:49 10° SSE visible
21 Oct 9.4 18:40:46 10° SW 18:43:34 22° W 18:46:25 10° NW visible
22 Oct 9.7 05:52:27 10° NE 05:55:08 19° E 05:57:50 10° SE visible
22 Oct 8.7 18:14:52 10° SSW 18:18:02 32° W 18:21:16 10° NNW visible
23 Oct 10.1 05:27:34 10° NE 05:29:31 14° E 05:31:29 10° ESE visible
23 Oct 7.6 07:00:12 10° NNE 07:03:44 51° ESE 07:07:18 10° S visible
23 Oct 7.8 17:49:11 10° S 17:52:34 47° W 17:56:01 10° NNW visible
23 Oct 10.2 19:25:17 10° WSW 19:26:51 12° W 19:28:27 10° NW visible
24 Oct 8.5 06:34:56 10° NNE 06:38:17 35° E 06:41:41 10° SSE visible
24 Oct 9.8 18:58:45 10° SW 19:01:13 18° W 19:03:42 10° NW visible
25 Oct 9.2 06:09:44 10° NE 06:12:47 25° E 06:15:51 10° SSE visible
25 Oct 9.2 18:32:40 10° SSW 18:35:37 25° W 18:38:38 10° NW visible
26 Oct 9.8 05:44:39 10° NE 05:47:12 18° E 05:49:45 10° SE visible
26 Oct 7.0 07:17:37 10° NNE 07:21:15 68° ESE 07:24:55 10° S visible
26 Oct 8.4 18:06:50 10° SSW 18:10:06 36° W 18:13:27 10° NNW visible
